Meteo Giornale » Osservazioni meteo Italia » Roma Fiumicino

ore: 15:50 - Osservazioni Meteo Roma Fiumicino
Lat. 41° 48' N Lon. 12° 14' E Alt. 2 metri s.l.m.

sereno Europe/Rome

25 °C

Sereno

Temp. 24 Ore

12 °C

25 °C

Sud-Ovest

20.3 Km/h

Dew point 10 °C

Umidità 38 %

Visibilità  10 Km

Il sole sorge alle ore 05:36

Il sole tramonta alle ore 20:41

Data e Ora Cielo e Fenomeni T °C DP °C Um. % Pres. hPa Vis. km Vento km/h
Oggi h: 15:50 sereno Sereno 25 10 38 1015 10 SO 20.3
Oggi h: 15:20 poco_nuvoloso Poco Nuvoloso 25 9 36 1015 10 SO 18.5
Oggi h: 14:50 nuvoloso Nuvoloso 25 9 36 1015 10 O/SO 20.3
Oggi h: 14:20 nuvoloso Nuvoloso 24 10 41 1015 10 O/SO 20.3
Oggi h: 13:50 poco_nuvoloso Poco Nuvoloso 25 10 38 1015 10 O 20.3
Oggi h: 13:20 sereno Sereno 24 10 41 1015 10 O 22.2
Oggi h: 12:50 sereno Sereno 24 10 41 1015 10 O 20.3
Oggi h: 12:20 sereno Sereno 24 7 33 1015 10 E/NE 11.1
Oggi h: 11:20 sereno Sereno 23 7 35 1015 10 N/NE 13
Oggi h: 10:50 sereno Sereno 22 8 40 1015 10 NE 13
Oggi h: 10:20 sereno Sereno 22 8 40 1015 10 N 11.1
Oggi h: 09:50 sereno Sereno 21 8 43 1015 10 N 16.7
Oggi h: 09:20 sereno Sereno 20 8 45 1015 10 N 20.3
Oggi h: 08:20 sereno Sereno 18 11 63 1015 10 N/NE 9.3
Oggi h: 07:50 sereno Sereno 17 11 67 1015 10 N/NE 13
Oggi h: 07:20 sereno Sereno 16 12 77 1015 10 N 5.5
Oggi h: 06:50 sereno Sereno 14 12 87 1015 10 N 3.7
Oggi h: 05:50 sereno Sereno 12 11 93 1015 10 N 3.7
Oggi h: 05:20 sereno Sereno 12 12 100 1015 10 N 1.8
Oggi h: 04:50 sereno Sereno 12 11 93 1015 10 N 3.7
Oggi h: 04:20 sereno Sereno 12 12 100 1015 10 N 3.7
Oggi h: 03:50 sereno Sereno 13 12 93 1015 10 N 5.5
Oggi h: 03:20 sereno Sereno 13 12 93 1015 10 N 5.5
Oggi h: 02:50 sereno Sereno 14 13 93 1015 10 N 1.8
Oggi h: 02:20 sereno Sereno 15 13 87 1015 10 N 3.7
Oggi h: 01:50 sereno Sereno 15 13 87 1015 10 N 5.5
Oggi h: 01:20 sereno Sereno 16 13 82 1015 10 S/SE 7.4
Oggi h: 00:50 sereno Sereno 17 13 77 1015 10 N 3.7
Oggi h: 00:20 sereno Sereno 17 13 77 1015 10 N 3.7
Ieri h: 23:50 sereno Sereno 17 14 82 1015 10 N 1.8
Ieri h: 22:50 sereno Sereno 19 14 72 1014 10 NO 14.8
Ieri h: 22:20 sereno Sereno 19 15 77 1014 10 O/NO 14.8
Ieri h: 21:50 sereno Sereno 19 14 72 1014 10 O/NO 16.7
Ieri h: 20:50 sereno Sereno 19 14 72 1014 10 O/NO 22.2
Ieri h: 20:20 sereno Sereno 20 13 64 1014 10 O/NO 20.3
Ieri h: 19:50 sereno Sereno 20 14 68 1014 10 O/NO 18.5
Ieri h: 19:20 sereno Sereno 20 13 64 1014 10 O/NO 20.3
Ieri h: 18:50 sereno Sereno 21 12 56 1014 10 O/NO 24
Ieri h: 17:50 sereno Sereno 21 15 68 1014 10 O 22.2
Ieri h: 16:50 sereno Sereno 21 15 68 1014 10 O 20.3